Location: PSU-Greenbush Astrophysical Observatory
(37.5140°N, 94.9880°W)
Time: 15:21:34
(UTC-06:00)

Altair - Pass Details

Date: 31 January 2020
Orbit: 1502 x 1682 km, 47.2° (Epoch: 19 February)

Event Time Altitude Azimuth Distance (km) Brightness Sun altitude
Rises 07:08:42 0° 237° (WSW) 4,808 9.7 -3.8°
Reaches altitude 10° 07:11:46 10° 237° (WSW) 3,847 9.2 -3.2°
Maximum altitude 07:21:42 87° 327° (NNW) 1,667 7.8 -1.4°
Drops below altitude 10° 07:31:55 10° 58° (ENE) 3,947 10.2 0.5°
Sets 07:35:06 0° 59° (ENE) 4,938 10.7 1.1°
